DW1253 Weather Reports


time (UTC)temp
C
wind
direction
speed
KPH
gust
KPH
rain 1hr
cm
rain 24hr
cm
rain mn
cm
humidity
%
barometer
mb
20260903075831 19 92 4.8 8.0 0.00 2.51 0.00 96 1012.9
20260903075352 19 266 3.2 11.3 0.00 2.51 0.00 96 1012.9
20260903074842 19 227 4.8 11.3 0.00 2.51 0.00 96 1013.1
20260903074342 19 138 1.6 9.7 0.00 2.51 0.00 96 1012.9
20260903073839 19 259 3.2 9.7 0.00 2.51 0.00 96 1013.0
20260903073337 19 218 0.0 4.8 0.00 2.51 0.00 96 1013.1
20260903072842 19 186 1.6 9.7 0.00 2.51 0.00 96 1013.1
20260903072334 19 231 3.2 9.7 0.00 2.51 0.00 96 1013.2
20260903071834 19 206 1.6 8.0 0.00 2.51 0.00 96 1013.2
20260903071333 19 226 3.2 8.0 0.00 2.51 0.00 96 1013.2
20260903070840 19 225 1.6 4.8 0.00 2.51 0.00 96 1013.1
20260903070342 19 270 1.6 6.4 0.00 2.51 0.00 96 1013.0
20260903065849 19 263 1.6 8.0 0.00 2.51 0.00 95 1013.0
20260903065334 19 249 4.8 8.0 0.00 2.51 0.00 96 1013.4
20260903064830 19 243 1.6 4.8 0.00 2.51 0.00 96 1013.6
20260903064341 19 243 1.6 6.4 0.00 2.51 0.00 96 1013.7
20260903063847 19 238 3.2 6.4 0.00 2.51 0.00 96 1014.0
20260903063348 19 217 3.2 6.4 0.00 2.51 0.00 96 1013.8
20260903062905 19 159 1.6 8.0 0.00 2.51 0.00 96 1013.9
20260903062348 19 247 1.6 8.0 0.00 2.51 0.00 96 1013.8
20260903061848 19 205 1.6 12.9 0.00 2.51 0.00 96 1013.8
20260903061349 19 249 4.8 16.1 0.00 2.51 0.00 96 1014.0
20260903060833 19 211 4.8 16.1 0.00 2.51 0.00 96 1014.1
20260903060332 19 234 3.2 12.9 0.00 2.51 0.00 96 1014.0
20260903055901 19 246 6.4 12.9 0.00 2.51 0.00 96 1013.9
20260903054847 19 272 3.2 8.0 0.00 2.51 0.00 95 1013.8
20260903054352 19 207 4.8 11.3 0.00 2.51 0.00 95 1013.7
20260903053856 19 239 3.2 11.3 0.00 2.51 0.00 95 1013.5
20260903053336 19 216 1.6 12.9 0.00 2.51 0.00 95 1013.7
20260903052854 19 215 4.8 12.9 0.00 2.51 0.00 95 1014.0
20260903052338 19 240 4.8 19.3 0.00 2.51 0.00 95 1014.4
20260903051844 19 217 6.4 14.5 0.00 2.51 0.00 95 1014.1
20260903051331 19 246 3.2 14.5 0.00 2.51 0.00 95 1014.2
20260903050834 19 247 3.2 8.0 0.00 2.51 0.00 95 1014.1
20260903050358 19 235 3.2 6.4 0.00 2.51 0.00 95 1013.8
20260903045843 19 230 3.2 4.8 0.00 2.51 0.00 95 1014.0
20260903045409 19 182 1.6 6.4 0.00 2.51 0.00 95 1014.1
20260903044847 19 245 3.2 6.4 0.03 2.51 0.00 95 1014.2
20260903044332 19 212 3.2 6.4 0.03 2.51 0.00 95 1014.2
20260903043912 19 258 1.6 6.4 0.05 2.51 0.00 95 1014.2
20260903043338 19 199 1.6 6.4 0.05 2.51 0.00 95 1013.8
20260903042858 19 253 3.2 4.8 0.05 2.51 0.00 95 1013.7
20260903042340 19 253 1.6 8.0 0.05 2.51 0.00 95 1013.7
20260903041841 19 248 3.2 9.7 0.08 2.51 0.00 95 1014.2
20260903041413 19 244 3.2 8.0 0.08 2.51 0.00 95 1014.2
20260903040843 19 232 3.2 8.0 0.08 2.51 0.00 95 1014.0
20260903040337 19 157 1.6 6.4 0.08 2.51 0.00 95 1013.6
20260903035843 19 136 1.6 8.0 0.08 2.51 2.51 95 1013.6
20260903035343 19 198 1.6 3.2 0.28 2.49 2.49 95 1013.6
20260903034845 19 107 0.0 3.2 0.28 2.49 2.49 95 1013.1
20260903034339 19 188 1.6 3.2 0.28 2.49 2.49 95 1013.2
20260903033837 19 188 0.0 3.2 0.28 2.46 2.46 95 1013.4
20260903033346 19 188 1.6 4.8 0.28 2.46 2.46 95 1013.4
20260903032849 19 188 1.6 4.8 0.28 2.46 2.46 95 1013.6
20260903032331 19 240 0.0 3.2 0.28 2.46 2.46 95 1014.0
20260903031857 19 240 1.6 3.2 0.25 2.44 2.44 94 1014.5
20260903031333 19 240 1.6 3.2 0.25 2.44 2.44 94 1014.4
20260903030831 19 240 1.6 3.2 0.25 2.44 2.44 94 1014.2
20260903030351 19 240 1.6 4.8 0.28 2.44 2.44 94 1014.2
20260903025841 19 240 0.0 8.0 0.28 2.44 2.44 94 1014.3
20260903025400 19 252 3.2 8.0 0.08 2.21 2.21 94 1014.8
20260903024841 20 230 3.2 4.8 0.10 2.21 2.21 94 1014.5
20260903024332 20 230 1.6 4.8 0.13 2.21 2.21 94 1014.6
20260903023833 20 230 1.6 3.2 0.18 2.18 2.18 94 1014.5
20260903023340 20 230 1.6 3.2 0.33 2.18 2.18 94 1014.5
20260903022839 20 230 1.6 3.2 0.33 2.18 2.18 94 1014.8
20260903022406 20 230 1.6 3.2 0.33 2.18 2.18 94 1014.9
20260903021848 20 230 0.0 3.2 0.33 2.18 2.18 94 1014.8
20260903021345 20 230 1.6 6.4 0.33 2.18 2.18 94 1014.8
20260903020843 20 230 0.0 6.4 0.33 2.18 2.18 94 1014.7
20260903020334 20 244 3.2 6.4 0.30 2.16 2.16 94 1014.7
20260903015843 20 251 3.2 6.4 0.30 2.16 2.16 93 1014.6
20260903015340 20 238 3.2 6.4 0.25 2.11 2.11 93 1014.6
20260903014904 20 216 3.2 6.4 0.28 2.11 2.11 94 1014.6
20260903014353 20 220 3.2 14.5 0.25 2.08 2.08 94 1014.5
20260903013847 20 121 8.0 14.5 0.20 2.01 2.01 94 1015.2
20260903013407 20 244 4.8 14.5 0.08 1.85 1.85 94 1015.9
20260903012852 20 111 4.8 14.5 0.08 1.85 1.85 93 1014.5
20260903012333 20 79 4.8 12.9 0.10 1.85 1.85 93 1015.0
20260903011837 20 101 1.6 3.2 0.10 1.85 1.85 93 1014.4
20260903011345 20 101 1.6 3.2 0.10 1.85 1.85 93 1014.6
20260903010841 20 98 1.6 4.8 0.13 1.85 1.85 93 1014.8
20260903010345 20 115 1.6 8.0 0.13 1.85 1.85 93 1015.0
20260903005833 20 171 1.6 6.4 0.13 1.85 1.85 93 1015.2
20260903005339 20 123 1.6 4.8 0.13 1.85 1.85 93 1015.2
20260903004902 20 116 1.6 4.8 0.10 1.83 1.83 93 1015.3
20260903004341 21 116 1.6 6.4 0.10 1.83 1.83 93 1015.0
20260903003833 20 116 1.6 9.7 0.15 1.80 1.80 93 1014.4
20260903003359 21 90 3.2 8.0 0.48 1.78 1.78 93 1014.5
20260903002832 21 115 3.2 14.5 0.94 1.78 1.78 93 1014.5
20260903002347 20 360 6.4 14.5 1.12 1.75 1.75 93 1014.5
20260903001847 21 38 3.2 12.9 1.12 1.75 1.75 92 1013.9
20260903001337 21 24 6.4 12.9 1.12 1.75 1.75 92 1013.5
20260903000830 21 44 4.8 9.7 1.09 1.73 1.73 92 1013.4
20260903000335 21 263 3.2 9.7 1.09 1.73 1.73 92 1013.2
20260902235844 21 96 3.2 9.7 1.09 1.73 1.73 92 1013.4
20260902235350 21 47 3.2 9.7 1.09 1.73 1.73 92 1013.2
20260902234900 21 46 4.8 16.1 1.09 1.73 1.73 91 1013.0
20260902234340 21 113 4.8 20.9 1.09 1.73 1.73 90 1012.9
20260902233836 22 255 8.0 22.5 1.02 1.65 1.65 88 1012.7
20260902233343 23 20 9.7 25.7 0.66 1.30 1.30 85 1012.3
20260902232833 25 309 9.7 24.1 0.20 0.84 0.84 90 1012.8
20260902232336 25 306 1.6 8.0 0.00 0.64 0.64 91 1012.6
20260902231841 25 216 1.6 8.0 0.00 0.64 0.64 91 1012.8
20260902231404 25 294 1.6 3.2 0.00 0.64 0.64 91 1013.1
20260902230841 25 224 1.6 3.2 0.00 0.64 0.64 91 1013.1
20260902230345 26 229 0.0 8.0 0.00 0.64 0.64 91 1012.9
20260902225839 26 229 3.2 11.3 0.00 0.64 0.64 91 1013.0
20260902225341 26 220 3.2 11.3 0.00 0.64 0.64 90 1013.0
20260902224849 26 223 3.2 11.3 0.00 0.64 0.64 90 1013.0
20260902224337 26 227 3.2 9.7 0.00 0.64 0.64 90 1013.1
20260902223834 26 237 3.2 11.3 0.00 0.64 0.64 89 1013.2
20260902223351 26 236 3.2 11.3 0.00 0.64 0.64 89 1013.2
20260902222833 26 244 3.2 12.9 0.00 0.64 0.64 88 1013.2
20260902222338 26 223 3.2 12.9 0.00 0.64 0.64 88 1013.1
20260902221843 26 206 3.2 11.3 0.00 0.64 0.64 88 1013.1
20260902221336 26 239 4.8 8.0 0.00 0.64 0.64 88 1013.1
20260902220843 26 223 3.2 8.0 0.00 0.64 0.64 88 1013.0
20260902220336 26 201 3.2 6.4 0.00 0.64 0.64 88 1012.8
20260902215849 27 141 3.2 8.0 0.00 0.64 0.64 88 1012.7
20260902215415 27 207 3.2 8.0 0.00 0.64 0.64 88 1012.9
20260902214837 26 246 1.6 6.4 0.00 0.64 0.64 88 1012.8
20260902214335 26 212 1.6 8.0 0.00 0.64 0.64 87 1012.5
20260902213843 27 228 3.2 14.5 0.00 0.64 0.64 86 1012.5
20260902213340 27 255 3.2 17.7 0.00 0.64 0.64 86 1012.5
20260902212848 27 257 4.8 17.7 0.00 0.64 0.64 86 1012.6
20260902212331 27 226 6.4 16.1 0.00 0.64 0.64 85 1012.8
20260902211902 27 215 6.4 14.5 0.00 0.64 0.64 87 1012.9
20260902211402 27 204 6.4 14.5 0.00 0.64 0.64 88 1013.2
20260902210841 26 226 3.2 8.0 0.00 0.64 0.64 88 1013.4
20260902210331 26 179 3.2 9.7 0.00 0.64 0.64 88 1013.4
20260902205839 26 140 3.2 9.7 0.00 0.64 0.64 89 1012.8
20260902205344 26 243 1.6 16.1 0.00 0.64 0.64 89 1013.4
20260902204835 27 232 6.4 16.1 0.00 0.64 0.64 86 1013.5
20260902204335 27 223 1.6 14.5 0.00 0.64 0.64 84 1013.8
20260902203839 28 211 1.6 11.3 0.00 0.64 0.64 84 1013.9
20260902203332 28 213 4.8 11.3 0.00 0.64 0.64 84 1014.2
20260902202839 27 205 3.2 4.8 0.00 0.64 0.64 87 1014.5
20260902202343 27 240 1.6 11.3 0.00 0.64 0.64 87 1014.5
20260902201835 27 260 3.2 11.3 0.00 0.64 0.64 87 1014.6
20260902201332 27 246 1.6 11.3 0.00 0.64 0.64 86 1014.7
20260902200843 27 187 3.2 11.3 0.00 0.64 0.64 84 1014.9
20260902200345 27 219 1.6 8.0 0.00 0.64 0.64 84 1014.8
20260902195849 28 240 3.2 8.0 0.00 0.64 0.64 84 1015.1
20260902195340 27 160 3.2 8.0 0.00 0.64 0.64 83 1015.1
20260902194839 27 197 1.6 9.7 0.00 0.64 0.64 83 1015.0
20260902194335 27 228 4.8 9.7 0.00 0.64 0.64 82 1015.0
20260902193831 27 220 3.2 9.7 0.00 0.64 0.64 85 1015.0
20260902193332 27 205 1.6 9.7 0.00 0.64 0.64 85 1015.1
20260902192855 27 198 1.6 9.7 0.00 0.64 0.64 86 1015.1
20260902192335 26 196 0.0 11.3 0.00 0.64 0.64 86 1015.2
20260902191837 26 221 3.2 11.3 0.00 0.64 0.64 87 1015.3
20260902191407 26 220 3.2 11.3 0.00 0.64 0.64 86 1015.3
20260902190833 27 240 4.8 12.9 0.00 0.64 0.64 85 1015.3
20260902190337 27 211 4.8 12.9 0.00 0.64 0.64 85 1015.4
20260902185842 27 226 4.8 11.3 0.00 0.64 0.64 85 1015.4
20260902185335 27 226 3.2 8.0 0.00 0.64 0.64 84 1015.4
20260902184831 27 209 1.6 9.7 0.00 0.64 0.64 86 1015.3
20260902184352 27 259 4.8 12.9 0.00 0.64 0.64 86 1015.2
20260902183851 27 230 4.8 12.9 0.00 0.64 0.64 85 1015.2
20260902183350 27 211 8.0 12.9 0.00 0.64 0.64 85 1015.2
20260902182836 26 196 6.4 14.5 0.00 0.64 0.64 86 1015.2
20260902182401 26 217 3.2 14.5 0.00 0.64 0.64 86 1015.0
20260902181846 26 227 6.4 19.3 0.00 0.64 0.64 87 1015.0
20260902181351 26 231 8.0 19.3 0.00 0.64 0.64 86 1015.2
20260902180848 26 249 9.7 17.7 0.00 0.64 0.64 86 1015.2
20260902180348 26 249 8.0 24.1 0.00 0.64 0.64 88 1015.2
20260902175830 25 273 8.0 24.1 0.03 0.64 0.64 88 1015.3
20260902175353 25 234 4.8 14.5 0.03 0.64 0.64 90 1015.4
20260902174836 25 215 6.4 12.9 0.03 0.64 0.64 91 1015.6
20260902174345 25 231 8.0 12.9 0.03 0.64 0.64 90 1015.8
20260902173849 24 192 6.4 12.9 0.03 0.64 0.64 90 1015.9
20260902173408 24 228 3.2 14.5 0.10 0.64 0.64 91 1016.1
20260902172849 24 197 6.4 14.5 0.15 0.64 0.64 91 1016.3
20260902172331 23 179 4.8 12.9 0.15 0.64 0.64 93 1016.1
20260902171840 23 219 3.2 9.7 0.15 0.64 0.64 94 1016.2
20260902171357 23 252 3.2 9.7 0.15 0.64 0.64 93 1016.2
20260902170830 23 236 4.8 8.0 0.15 0.64 0.64 93 1016.1
20260902170350 23 198 3.2 11.3 0.15 0.64 0.64 92 1016.1
20260902165830 23 200 1.6 9.7 0.13 0.61 0.61 92 1016.0
20260902165408 23 219 3.2 9.7 0.13 0.61 0.61 91 1016.0
20260902164830 23 203 0.0 4.8 0.13 0.61 0.61 91 1015.9
20260902164341 23 203 0.0 4.8 0.13 0.61 0.61 91 1015.9
20260902163848 23 203 1.6 4.8 0.10 0.58 0.58 91 1015.9
20260902163400 23 203 1.6 8.0 0.05 0.53 0.53 92 1016.0
20260902162844 23 230 3.2 8.0 0.00 0.48 0.48 92 1016.1
20260902162348 23 237 1.6 6.4 0.00 0.48 0.48 92 1015.9
20260902161832 23 222 1.6 6.4 0.00 0.48 0.48 92 1015.9
20260902161333 23 229 1.6 9.7 0.00 0.48 0.48 92 1015.9
20260902160858 23 228 1.6 9.7 0.00 0.48 0.48 92 1016.1
20260902160347 23 236 4.8 9.7 0.00 0.48 0.48 92 1016.0
20260902155917 23 231 1.6 9.7 0.00 0.51 0.48 92 1016.1
20260902155330 23 113 1.6 4.8 0.00 0.51 0.48 93 1015.9
20260902154852 23 194 1.6 8.0 0.00 0.51 0.48 93 1016.0
20260902154337 23 226 1.6 8.0 0.00 0.51 0.48 92 1015.8
20260902153844 23 277 0.0 6.4 0.00 0.51 0.48 92 1015.9
20260902153406 23 215 1.6 6.4 0.00 0.51 0.48 93 1015.8
20260902152855 23 217 1.6 8.0 0.00 0.51 0.48 93 1015.8
20260902152346 23 225 1.6 11.3 0.00 0.51 0.48 93 1015.9
20260902151832 23 249 3.2 6.4 0.00 0.51 0.48 94 1015.9
20260902151338 23 236 3.2 8.0 0.00 0.51 0.48 94 1016.1
20260902150838 23 203 1.6 8.0 0.00 0.51 0.48 94 1016.3
20260902150344 23 216 3.2 11.3 0.00 0.51 0.48 95 1016.6
20260902145852 23 250 4.8 11.3 0.00 0.51 0.48 95 1016.6
20260902145348 23 209 3.2 6.4 0.00 0.51 0.48 95 1016.7
20260902144859 23 232 0.0 6.4 0.00 0.51 0.48 96 1016.5
20260902144346 22 88 3.2 6.4 0.00 0.51 0.48 95 1016.5
20260902143843 23 110 3.2 6.4 0.00 0.51 0.48 96 1016.6
20260902143343 22 108 1.6 4.8 0.00 0.51 0.48 96 1016.6
20260902142841 22 108 1.6 4.8 0.00 0.51 0.48 96 1016.7
20260902142346 22 202 1.6 4.8 0.00 0.51 0.48 97 1016.4
20260902141849 22 212 1.6 6.4 0.00 0.51 0.48 96 1016.5
20260902141354 22 212 1.6 11.3 0.00 0.51 0.48 97 1016.7
20260902140844 22 196 1.6 4.8 0.00 0.51 0.48 97 1016.8
20260902140337 22 196 1.6 4.8 0.00 0.51 0.48 97 1016.8
20260902135847 22 181 1.6 4.8 0.00 0.51 0.48 96 1017.1
20260902135401 21 181 0.0 4.8 0.00 0.51 0.48 96 1017.2
20260902134903 21 181 1.6 4.8 0.00 0.51 0.48 96 1017.2
20260902134340 21 181 1.6 4.8 0.00 0.51 0.48 96 1017.2
20260902133841 21 181 1.6 4.8 0.00 0.51 0.48 96 1017.0
20260902133332 21 181 3.2 4.8 0.00 0.51 0.48 96 1017.0
20260902132838 21 221 0.0 3.2 0.00 0.51 0.48 96 1017.2
20260902132334 21 221 0.0 3.2 0.00 0.51 0.48 96 1017.3
20260902131857 21 221 1.6 3.2 0.00 0.51 0.48 96 1017.2
20260902131336 21 221 0.0 6.4 0.00 0.51 0.48 96 1017.1
20260902130856 21 186 0.0 4.8 0.00 0.51 0.48 96 1016.7
20260902130331 21 186 0.0 3.2 0.00 0.51 0.48 96 1016.5
20260902125837 21 186 0.0 3.2 0.00 0.51 0.48 96 1016.6
20260902125335 21 186 0.0 1.6 0.03 0.51 0.48 96 1016.5
20260902124831 21 186 0.0 4.8 0.23 0.51 0.48 96 1016.4
20260902124333 21 186 1.6 4.8 0.48 0.51 0.48 96 1016.5
20260902123834 21 200 1.6 3.2 0.48 0.51 0.48 96 1016.3
20260902123343 21 200 1.6 3.2 0.48 0.51 0.48 96 1016.2
20260902122848 21 199 0.0 6.4 0.48 0.51 0.48 96 1015.8
20260902122415 21 196 1.6 6.4 0.48 0.51 0.48 96 1015.6
20260902121835 21 157 1.6 4.8 0.48 0.51 0.48 96 1015.6
20260902121341 21 219 0.0 4.8 0.48 0.51 0.48 96 1015.7
20260902120846 21 221 1.6 16.1 0.48 0.51 0.48 96 1015.7
20260902120331 21 208 3.2 20.9 0.48 0.51 0.48 96 1015.6
20260902115835 21 161 9.7 35.4 0.48 0.51 0.48 96 1015.4
20260902115337 21 192 12.9 37.0 0.46 0.48 0.46 96 1015.5
20260902114850 21 253 14.5 37.0 0.25 0.28 0.25 96 1015.7
20260902114346 21 231 3.2 11.3 0.00 0.03 0.00 96 1015.2
20260902113841 21 230 1.6 11.3 0.00 0.03 0.00 96 1015.2
20260902113340 21 269 1.6 6.4 0.00 0.03 0.00 96 1015.0
20260902112842 21 281 1.6 8.0 0.00 0.03 0.00 96 1014.8
20260902112405 21 132 3.2 9.7 0.00 0.03 0.00 96 1015.0
20260902111842 21 207 4.8 9.7 0.00 0.03 0.00 96 1015.0
20260902111342 21 238 3.2 6.4 0.00 0.03 0.00 96 1015.1
20260902110841 21 231 3.2 8.0 0.00 0.03 0.00 96 1015.0
20260902110340 21 245 1.6 8.0 0.00 0.03 0.00 96 1014.8
20260902105847 21 239 1.6 8.0 0.00 0.03 0.00 96 1014.5
20260902105342 21 127 3.2 8.0 0.00 0.03 0.00 96 1014.5
20260902104848 21 145 1.6 9.7 0.00 0.03 0.00 96 1014.5
20260902104406 21 159 1.6 9.7 0.00 0.03 0.00 95 1014.4
20260902103847 21 88 3.2 9.7 0.00 0.03 0.00 95 1014.4
20260902103411 21 171 1.6 8.0 0.00 0.03 0.00 95 1014.4
20260902102834 21 220 3.2 6.4 0.00 0.03 0.00 95 1014.5
20260902102337 21 145 1.6 9.7 0.00 0.03 0.00 95 1014.6
20260902101833 21 211 1.6 11.3 0.00 0.03 0.00 95 1014.8
20260902101352 21 250 1.6 9.7 0.00 0.03 0.00 95 1014.4
20260902100837 21 163 0.0 8.0 0.00 0.03 0.00 95 1014.2
20260902100341 21 178 1.6 8.0 0.00 0.03 0.00 95 1014.5
20260902095902 21 174 1.6 8.0 0.00 0.03 0.00 95 1014.7
20260902095345 21 192 1.6 8.0 0.00 0.03 0.00 95 1014.6
20260902094840 21 202 3.2 8.0 0.00 0.03 0.00 95 1014.8
20260902094333 21 227 1.6 8.0 0.00 0.03 0.00 95 1014.9
20260902093833 21 198 1.6 8.0 0.00 0.03 0.00 95 1014.9
20260902093338 21 184 1.6 4.8 0.00 0.03 0.00 95 1015.0
20260902092844 21 156 1.6 6.4 0.00 0.03 0.00 95 1015.0
20260902092339 21 176 3.2 8.0 0.00 0.03 0.00 95 1015.0
20260902091840 21 161 1.6 8.0 0.00 0.03 0.00 96 1015.1
20260902091338 21 244 1.6 4.8 0.00 0.03 0.00 95 1015.1
20260902090840 21 305 1.6 6.4 0.00 0.03 0.00 95 1015.2
20260902090348 21 211 3.2 6.4 0.00 0.03 0.00 95 1015.1
20260902085852 21 195 1.6 3.2 0.00 0.03 0.00 95 1015.1
20260902085350 21 195 0.0 3.2 0.00 0.03 0.00 95 1015.4